This is the latest recevied weather packets stored in our database for station/object IW0REF-9. If no packets are shown the sender has not sent any weather packets the latest 10 day(s).
| Time | Temp. | Humidity | Pressure | Rain* | Wind** | Luminosity | Snow |
|---|---|---|---|---|---|---|---|
| 1777763855 | 14.44° C | 26% | 1004.7 hPa | - | - | - | - |
| 1777762954 | 15° C | 25% | 1004.9 hPa | - | - | - | - |
| 1777762053 | 15.56° C | 24% | 1004.8 hPa | - | - | - | - |
| 1777761152 | 16.11° C | 24% | 1004.8 hPa | - | - | - | - |
| 1777760252 | 16.67° C | 24% | 1004.9 hPa | - | - | - | - |
| 1777759351 | 16.67° C | 23% | 1004.6 hPa | - | - | - | - |
| 1777758451 | 16.67° C | 23% | 1004.7 hPa | - | - | - | - |
| 1777757550 | 16.67° C | 23% | 1004.8 hPa | - | - | - | - |
| 1777756650 | 16.67° C | 22% | 1004.7 hPa | - | - | - | - |
| 1777755749 | 17.22° C | 21% | 1004.8 hPa | - | - | - | - |
| 1777754848 | 17.22° C | 21% | 1004.7 hPa | - | - | - | - |
| 1777753948 | 17.22° C | 20% | 1004.9 hPa | - | - | - | - |
| 1777753047 | 17.22° C | 20% | 1004.8 hPa | - | - | - | - |
| 1777752147 | 17.78° C | 19% | 1004.7 hPa | - | - | - | - |
| 1777751246 | 17.78° C | 19% | 1004.5 hPa | - | - | - | - |
| 1777750345 | 18.33° C | 19% | 1004.3 hPa | - | - | - | - |
| 1777749445 | 18.33° C | 18% | 1004.1 hPa | - | - | - | - |
| 1777748544 | 18.89° C | 18% | 1003.8 hPa | - | - | - | - |
| 1777747644 | 19.44° C | 17% | 1003.7 hPa | - | - | - | - |
| 1777746743 | 20° C | 16% | 1003.7 hPa | - | - | - | - |
| 1777745842 | 22.22° C | 14% | 1003.4 hPa | - | - | - | - |
| 1777744942 | 25.56° C | 13% | 1003.4 hPa | - | - | - | - |
| 1777744041 | 27.22° C | 13% | 1003.3 hPa | - | - | - | - |
| 1777743141 | 28.89° C | 12% | 1003.2 hPa | - | - | - | - |
| 1777742240 | 30° C | 11% | 1003.1 hPa | - | - | - | - |
* Rain since midnight (hover to see other rain measurements)
** Current wind speed in m/s (hover to see current wind gust speed)